This demonstration page uses our WeatherBlox Daily Observations layout. Learn more.

Left ArrowRight Arrow

39.08367, -84.50855

Hourly Observations for September 17, 2017

Temp ( °F °C ) Dew Point ( °F °C ) Humidity (%) Winds ( mph kmh ) Pressure ( in mb ) Visibility ( mi km ) Precip ( " mm )
12:21 am 00:21 Clear with Mist and Fog 62 16.7 62 16.7 100 100 N N/A 30.12 1020 2 3 N/A
12:31 am 00:31 Clear with Mist and Fog 61 16.1 61 16.1 100 100 N N/A 30.12 1020 1 1 N/A
12:50 am 00:50 Clear with Mist and Fog 61 16 61 16 100 100 N N/A 30.12 1020 1 2 N/A
12:53 am 00:53 Clear with Fog 61 16.1 61 16.1 100 100 N N/A 30.13 1020 1 1 N/A
1:04 am 01:04 Clear with Mist and Fog 61 16.1 61 16.1 100 100 N N/A 30.12 1020 2 3 N/A
1:11 am 01:11 Clear with Mist and Fog 61 16.1 61 16.1 100 100 N N/A 30.12 1020 4 6 N/A
1:26 am 01:26 Clear with Mist and Fog 61 16.1 61 16.1 100 100 N N/A 30.12 1020 2 3 N/A
1:40 am 01:40 Clear with Mist and Fog 61 16.1 61 16.1 100 100 N N/A 30.09 1019 3 5 N/A
1:42 am 01:42 Clear with Mist and Fog 61 16.1 61 16.1 100 100 N N/A 30.09 1019 2 3 N/A
1:53 am 01:53 Mostly Cloudy with Mist and Fog 60 15.6 60 15.6 100 100 N N/A 30.12 1020 1 1 N/A
2:28 am 02:28 Mostly Clear with Mist and Fog 60 15.6 60 15.6 100 100 N N/A 30.09 1019 2 2 N/A
2:30 am 02:30 Mostly Clear with Mist and Fog 60 15.6 60 15.6 100 100 N N/A 30.09 1019 3 5 N/A
2:32 am 02:32 Mostly Clear with Mist and Fog 60 15.6 60 15.6 100 100 N N/A 30.09 1019 2 2 N/A
2:36 am 02:36 Mostly Cloudy with Mist and Fog 60 15.6 60 15.6 100 100 N N/A 30.09 1019 1 1 N/A
2:53 am 02:53 Mostly Cloudy with Fog 58 14.4 58 14.4 100 100 N N/A 30.12 1020 1 1 N/A
3:08 am 03:08 Mostly Cloudy with Mist and Fog 60 15.6 60 15.6 100 100 N N/A 30.09 1019 2 3 N/A
3:22 am 03:22 Cloudy with Mist and Fog 60 15.6 60 15.6 100 100 N N/A 30.09 1019 2 3 N/A
3:27 am 03:27 Cloudy with Mist and Fog 60 15.6 60 15.6 100 100 N N/A 30.09 1019 3 5 N/A
3:42 am 03:42 Mostly Cloudy with Mist and Fog 59 15 59 15 100 100 NE 3 6 30.12 1020 1 2 N/A
3:50 am 03:50 Partly Cloudy with Mist and Fog 59 15 59 15 100 100 N N/A 30.12 1020 3 5 N/A
3:53 am 03:53 Partly Cloudy with Mist and Fog 60 15.6 60 15.6 100 100 N N/A 30.11 1020 3 5 N/A
4:02 am 04:02 Mostly Clear with Mist and Fog 59 15 59 15 100 100 N N/A 30.12 1020 2 3 N/A
4:13 am 04:13 Mostly Cloudy with Mist and Fog 59 15 59 15 100 100 N N/A 30.12 1020 1 1 N/A
4:23 am 04:23 Mostly Cloudy with Fog 58 14.4 58 14.4 100 100 N N/A 30.12 1020 0 0 N/A
4:32 am 04:32 Mostly Cloudy with Mist and Fog 59 15 59 15 100 100 N N/A 30.12 1020 1 1 N/A
4:34 am 04:34 Cloudy with Mist and Fog 59 15 59 15 100 100 N N/A 30.12 1020 3 4 N/A
4:38 am 04:38 Cloudy with Mist and Fog 59 15 59 15 100 100 N N/A 30.12 1020 1 1 N/A
4:53 am 04:53 Cloudy with Mist and Fog 59 15 59 15 100 100 N N/A 30.10 1019 1 2 N/A
5:02 am 05:02 Mostly Cloudy with Fog 59 15 59 15 100 100 N N/A 30.12 1020 1 1 N/A
5:10 am 05:10 Mostly Cloudy with Fog 59 15 59 15 100 100 N N/A 30.12 1020 0 0 N/A
5:33 am 05:33 Mostly Cloudy with Mist and Fog 60 15.6 60 15.6 100 100 N N/A 30.09 1019 1 1 N/A
5:49 am 05:49 Mostly Cloudy with Fog 61 16 61 16 100 100 N N/A 30.09 1019 0 0 N/A
5:53 am 05:53 Mostly Cloudy with Fog 60 15.6 60 15.6 100 100 N N/A 30.11 1020 0 0 N/A
6:53 am 06:53 Mostly Cloudy with Fog 59 15 59 15 100 100 N N/A 30.14 1021 0 0 N/A
7:53 am 07:53 Mostly Cloudy 59 15 59 15 100 100 N N/A 30.16 1021 0 0 N/A
8:21 am 08:21 Mostly Cloudy with Mist and Fog 60 15.6 60 15.6 100 100 N N/A 30.18 1022 2 3 N/A
8:34 am 08:34 Partly Cloudy with Mist and Fog 61 16.1 61 16.1 100 100 N N/A 30.18 1022 5 8 N/A
8:53 am 08:53 Partly Cloudy with Patchy Fog 62 16.7 62 16.7 100 100 N N/A 30.16 1022 7 11 N/A
9:53 am 09:53 Sunny 67 19.4 65 18.3 93 93 N N/A 30.17 1022 9 14 N/A
10:53 am 10:53 Sunny 72 22.2 68 20 87 87 N N/A 30.16 1021 10 16 N/A
11:53 am 11:53 Sunny 78 25.6 68 20 71 71 VRB 5 7 30.15 1021 10 16 N/A
12:53 pm 12:53 Sunny 81 27.2 66 18.9 61 61 VRB 3 6 30.13 1020 10 16 N/A
1:53 pm 13:53 Sunny 82 27.8 67 19.4 60 60 N N/A 30.11 1020 10 16 N/A
2:53 pm 14:53 Partly Cloudy 84 28.9 67 19.4 57 57 SSE 6 9 30.08 1019 10 16 N/A
3:53 pm 15:53 Partly Cloudy 85 29.4 65 18.3 51 51 N N/A 30.07 1018 10 16 N/A
4:53 pm 16:53 Mostly Cloudy 82 27.8 67 19.4 60 60 SW 3 6 30.06 1018 10 16 N/A
5:53 pm 17:53 Partly Cloudy 81 27.2 65 18.3 58 58 S 3 6 30.05 1018 10 16 N/A
6:53 pm 18:53 Mostly Sunny 79 26.1 71 21.7 77 77 S 3 6 30.05 1018 10 16 N/A
7:53 pm 19:53 Clear 73 22.8 69 20.6 87 87 N N/A 30.06 1018 10 16 N/A
8:53 pm 20:53 Clear 69 20.6 67 19.4 93 93 N N/A 30.07 1018 10 16 N/A
9:53 pm 21:53 Clear 67 19.4 67 19.4 100 100 N N/A 30.08 1019 8 13 N/A
10:53 pm 22:53 Clear with Mist and Fog 66 18.9 66 18.9 100 100 N N/A 30.09 1019 6 10 N/A
11:40 pm 23:40 Clear with Mist and Fog 65 18.3 65 18.3 100 100 N N/A 30.06 1018 2 3 N/A
11:50 pm 23:50 Clear with Mist and Fog 64 18 64 18 100 100 N N/A 30.06 1018 1 2 N/A
11:53 pm 23:53 Clear with Mist and Fog 64 17.8 64 17.8 100 100 N N/A 30.09 1019 1 2 N/A

Powered by AerisWeather